Time,TemperatureF,DewpointF,PressureIn,WindDirection,WindDirectionDegrees,WindSpeedMPH,WindSpeedGustMPH,Humidity,HourlyPrecipIn,Conditions,Clouds,dailyrainin,SoftwareType,DateUTC
2013-01-17 00:01:00,35.4,32.1,30.11,SW,233,0.0,0.0,88,0.00,,OVC038,0.00,VWS V14.01,2013-01-17 06:01:00,
2013-01-17 00:06:00,35.4,32.1,30.11,SW,233,0.0,0.0,88,0.00,,OVC038,0.00,VWS V14.01,2013-01-17 06:06:00,
2013-01-17 00:11:00,35.4,32.1,30.11,SW,236,0.0,0.0,88,0.00,,OVC038,0.00,VWS V14.01,2013-01-17 06:11:00,
2013-01-17 00:16:00,35.4,32.1,30.11,WSW,249,0.0,0.0,88,0.00,,OVC038,0.00,VWS V14.01,2013-01-17 06:16:00,
2013-01-17 00:21:00,35.4,32.1,30.11,WSW,251,0.0,0.0,88,0.00,,OVC038,0.00,VWS V14.01,2013-01-17 06:21:00,
2013-01-17 00:26:00,35.6,31.2,30.11,WSW,245,0.0,0.0,84,0.00,,OVC040,0.00,VWS V14.01,2013-01-17 06:26:00,
2013-01-17 00:32:00,35.6,31.2,30.11,West,260,4.0,4.0,84,0.00,,OVC040,0.00,VWS V14.01,2013-01-17 06:32:00,
2013-01-17 00:37:00,35.8,31.4,30.11,WNW,299,0.0,4.9,84,0.00,,OVC040,0.00,VWS V14.01,2013-01-17 06:37:00,
2013-01-17 00:42:00,35.8,31.4,30.11,WNW,285,0.0,3.1,84,0.00,,OVC040,0.00,VWS V14.01,2013-01-17 06:42:00,
2013-01-17 00:47:00,35.8,31.4,30.11,West,267,3.1,3.1,84,0.00,,OVC040,0.00,VWS V14.01,2013-01-17 06:47:00,
2013-01-17 00:52:00,35.8,31.4,30.11,WNW,293,3.1,4.0,84,0.00,,OVC040,0.00,VWS V14.01,2013-01-17 06:52:00,
2013-01-17 00:57:00,35.8,31.4,30.11,NW,317,0.0,4.9,84,0.00,,OVC040,0.00,VWS V14.01,2013-01-17 06:57:00,
2013-01-17 01:02:00,35.8,31.4,30.11,WNW,291,2.7,3.6,84,0.00,,OVC040,0.00,VWS V14.01,2013-01-17 07:02:00,
2013-01-17 01:07:00,35.8,31.4,30.11,WNW,291,0.0,0.0,84,0.00,,OVC040,0.00,VWS V14.01,2013-01-17 07:07:00,
2013-01-17 01:12:00,35.8,31.4,30.11,West,278,0.0,0.0,84,0.00,,OVC040,0.00,VWS V14.01,2013-01-17 07:12:00,
2013-01-17 01:17:00,35.8,31.4,30.11,WNW,286,0.0,0.0,84,0.00,,OVC040,0.00,VWS V14.01,2013-01-17 07:17:00,
2013-01-17 01:22:00,35.6,31.2,30.11,WNW,286,0.0,0.0,84,0.00,,OVC040,0.00,VWS V14.01,2013-01-17 07:22:00,
2013-01-17 01:27:00,35.4,32.1,30.11,West,259,0.0,0.0,88,0.00,,OVC040,0.00,VWS V14.01,2013-01-17 07:27:00,
2013-01-17 01:32:00,35.2,31.9,30.14,WNW,298,0.0,0.0,88,0.00,,OVC040,0.00,VWS V14.01,2013-01-17 07:32:00,
2013-01-17 01:37:00,35.1,31.7,30.14,WNW,298,0.0,0.0,88,0.00,,OVC040,0.00,VWS V14.01,2013-01-17 07:37:00,
2013-01-17 01:42:00,34.9,31.5,30.14,WNW,298,0.0,0.0,88,0.00,,BKN040,0.00,VWS V14.01,2013-01-17 07:42:00,
2013-01-17 01:47:00,34.9,31.5,30.14,WNW,298,0.0,0.0,88,0.00,,BKN040,0.00,VWS V14.01,2013-01-17 07:47:00,
2013-01-17 01:52:00,34.9,31.5,30.14,WNW,298,0.0,0.0,88,0.00,,BKN040,0.00,VWS V14.01,2013-01-17 07:52:00,
2013-01-17 01:57:00,34.7,31.4,30.14,NNW,331,0.0,0.0,88,0.00,,BKN040,0.00,VWS V14.01,2013-01-17 07:57:00,
2013-01-17 02:03:00,34.9,31.5,30.14,NW,314,0.0,4.9,88,0.00,,SCT038,0.00,VWS V14.01,2013-01-17 08:03:00,
2013-01-17 02:08:00,35.1,31.7,30.14,NW,314,0.0,0.0,88,0.00,,SCT038,0.00,VWS V14.01,2013-01-17 08:08:00,
2013-01-17 02:13:00,35.1,31.7,30.14,North,353,0.0,0.0,88,0.00,,SCT038,0.00,VWS V14.01,2013-01-17 08:13:00,
2013-01-17 02:18:00,35.1,31.7,30.14,NNW,344,0.0,0.0,88,0.00,,SCT038,0.00,VWS V14.01,2013-01-17 08:18:00,
2013-01-17 02:23:00,35.1,31.7,30.14,NNW,340,4.9,4.9,88,0.00,,CLR,0.00,VWS V14.01,2013-01-17 08:23:00,
2013-01-17 02:28:00,34.9,31.5,30.14,NW,323,2.7,4.0,88,0.00,,CLR,0.00,VWS V14.01,2013-01-17 08:28:00,
2013-01-17 02:33:00,34.5,31.2,30.17,NW,321,3.6,4.9,88,0.00,,CLR,0.00,VWS V14.01,2013-01-17 08:33:00,
2013-01-17 02:38:00,34.3,31.0,30.17,NW,325,0.0,4.0,88,0.00,,CLR,0.00,VWS V14.01,2013-01-17 08:38:00,
2013-01-17 02:43:00,34.0,30.7,30.17,North,357,0.0,3.6,88,0.00,,CLR,0.00,VWS V14.01,2013-01-17 08:43:00,
2013-01-17 02:48:00,33.8,30.5,30.17,NNW,331,3.1,4.0,88,0.00,,CLR,0.00,VWS V14.01,2013-01-17 08:48:00,
2013-01-17 02:53:00,33.6,30.3,30.17,NNW,331,0.0,0.0,88,0.00,,CLR,0.00,VWS V14.01,2013-01-17 08:53:00,
2013-01-17 02:58:00,33.3,30.0,30.17,NNW,338,0.0,0.0,88,0.00,,CLR,0.00,VWS V14.01,2013-01-17 08:58:00,
2013-01-17 03:03:00,33.1,29.8,30.17,NNW,336,3.6,4.0,88,0.00,,CLR,0.00,VWS V14.01,2013-01-17 09:03:00,
2013-01-17 03:08:00,33.1,29.8,30.17,North,0,2.7,3.1,88,0.00,,CLR,0.00,VWS V14.01,2013-01-17 09:08:00,
2013-01-17 03:13:00,32.7,29.4,30.17,North,353,0.0,2.7,88,0.00,,CLR,0.00,VWS V14.01,2013-01-17 09:13:00,
2013-01-17 03:19:00,32.5,29.2,30.17,North,353,4.0,4.9,88,0.00,,CLR,0.00,VWS V14.01,2013-01-17 09:19:00,
2013-01-17 03:24:00,32.5,29.2,30.17,North,10,0.0,0.0,88,0.00,,CLR,0.00,VWS V14.01,2013-01-17 09:24:00,
2013-01-17 03:29:00,32.4,29.1,30.17,NNW,335,4.0,5.4,88,0.00,,CLR,0.00,VWS V14.01,2013-01-17 09:29:00,
2013-01-17 03:34:00,32.4,29.1,30.17,NNW,329,3.1,5.8,88,0.00,,CLR,0.00,VWS V14.01,2013-01-17 09:34:00,
2013-01-17 03:39:00,32.4,29.1,30.17,North,0,4.0,7.2,88,0.00,,CLR,0.00,VWS V14.01,2013-01-17 09:39:00,
2013-01-17 03:44:00,32.4,29.1,30.20,NNW,338,4.0,4.9,88,0.00,,CLR,0.00,VWS V14.01,2013-01-17 09:44:00,
2013-01-17 03:49:00,32.4,29.1,30.20,North,0,3.6,5.8,88,0.00,,CLR,0.00,VWS V14.01,2013-01-17 09:49:00,
2013-01-17 03:54:00,32.4,29.1,30.20,NW,326,4.0,5.8,88,0.00,,CLR,0.00,VWS V14.01,2013-01-17 09:54:00,
2013-01-17 03:59:00,32.4,29.1,30.20,North,353,6.3,6.3,88,0.00,,CLR,0.00,VWS V14.01,2013-01-17 09:59:00,
2013-01-17 04:04:00,32.4,29.1,30.20,North,353,5.8,6.7,88,0.00,,CLR,0.00,VWS V14.01,2013-01-17 10:04:00,
2013-01-17 04:09:00,32.4,29.1,30.20,North,7,3.1,6.3,88,0.00,,CLR,0.00,VWS V14.01,2013-01-17 10:09:00,
2013-01-17 04:14:00,32.2,28.9,30.20,North,353,4.9,6.3,88,0.00,,CLR,0.00,VWS V14.01,2013-01-17 10:14:00,
2013-01-17 04:19:00,32.0,28.7,30.20,NNW,339,3.1,5.4,88,0.00,,CLR,0.00,VWS V14.01,2013-01-17 10:19:00,
2013-01-17 04:24:00,32.0,28.7,30.20,NNW,335,5.4,7.6,88,0.00,,CLR,0.00,VWS V14.01,2013-01-17 10:24:00,
2013-01-17 04:29:00,32.0,28.7,30.20,NNW,335,3.6,8.1,88,0.00,,CLR,0.00,VWS V14.01,2013-01-17 10:29:00,
2013-01-17 04:34:00,32.0,28.7,30.20,North,0,4.0,8.3,88,0.00,,CLR,0.00,VWS V14.01,2013-01-17 10:34:00,
2013-01-17 04:39:00,31.8,28.5,30.20,NNW,348,5.8,7.2,88,0.00,,CLR,0.00,VWS V14.01,2013-01-17 10:39:00,
2013-01-17 04:44:00,32.0,28.7,30.23,NW,324,5.4,6.7,88,0.00,,CLR,0.00,VWS V14.01,2013-01-17 10:44:00,
2013-01-17 04:49:00,32.2,31.7,30.23,NNE,17,4.0,7.6,98,0.00,,CLR,0.00,VWS V14.01,2013-01-17 10:49:00,
2013-01-17 04:54:00,32.5,32.0,30.23,NNW,331,4.0,8.7,98,0.00,,CLR,0.00,VWS V14.01,2013-01-17 10:54:00,
2013-01-17 04:59:00,32.5,32.0,30.23,North,357,7.6,10.1,98,0.00,,CLR,0.00,VWS V14.01,2013-01-17 10:59:00,
2013-01-17 05:04:00,32.7,32.2,30.23,NNW,343,6.3,8.3,98,0.00,,CLR,0.00,VWS V14.01,2013-01-17 11:04:00,
2013-01-17 05:09:00,32.5,32.0,30.23,NNW,339,5.8,8.1,98,0.00,,CLR,0.00,VWS V14.01,2013-01-17 11:09:00,
2013-01-17 05:14:00,32.5,32.0,30.23,North,8,8.7,10.1,98,0.00,,CLR,0.00,VWS V14.01,2013-01-17 11:14:00,
2013-01-17 05:20:00,32.5,32.0,30.23,NW,320,8.1,8.7,98,0.00,,CLR,0.00,VWS V14.01,2013-01-17 11:20:00,
2013-01-17 05:25:00,32.5,32.0,30.23,North,0,5.4,11.0,98,0.00,,CLR,0.00,VWS V14.01,2013-01-17 11:25:00,
2013-01-17 05:30:00,32.5,32.0,30.23,NNW,348,5.8,8.3,98,0.00,,CLR,0.00,VWS V14.01,2013-01-17 11:30:00,
2013-01-17 05:35:00,32.4,31.9,30.23,NNW,341,5.4,8.1,98,0.00,,CLR,0.00,VWS V14.01,2013-01-17 11:35:00,
2013-01-17 05:40:00,32.2,31.7,30.23,NW,319,8.3,11.0,98,0.00,,CLR,0.00,VWS V14.01,2013-01-17 11:40:00,
2013-01-17 05:45:00,32.2,31.7,30.26,North,357,5.8,10.1,98,0.00,,CLR,0.00,VWS V14.01,2013-01-17 11:45:00,
2013-01-17 05:50:00,32.2,31.7,30.26,North,353,4.0,8.7,98,0.00,,CLR,0.00,VWS V14.01,2013-01-17 11:50:00,
2013-01-17 05:55:00,32.0,31.5,30.26,NNW,340,5.8,8.3,98,0.00,,CLR,0.00,VWS V14.01,2013-01-17 11:55:00,
2013-01-17 06:00:00,31.6,31.1,30.26,North,353,5.4,10.5,98,0.00,,CLR,0.00,VWS V14.01,2013-01-17 12:00:00,
2013-01-17 06:05:00,31.5,31.0,30.26,North,349,4.0,8.1,98,0.00,,CLR,0.00,VWS V14.01,2013-01-17 12:05:00,
2013-01-17 06:10:00,31.1,30.6,30.26,North,357,5.8,8.3,98,0.00,,CLR,0.00,VWS V14.01,2013-01-17 12:10:00,
2013-01-17 06:15:00,30.9,30.4,30.26,North,3,8.1,11.0,98,0.00,,CLR,0.00,VWS V14.01,2013-01-17 12:15:00,
2013-01-17 06:20:00,30.7,30.2,30.26,NNW,346,8.1,13.2,98,0.00,,CLR,0.00,VWS V14.01,2013-01-17 12:20:00,
2013-01-17 06:25:00,30.6,27.3,30.26,NNW,332,10.1,13.2,88,0.00,,CLR,0.00,VWS V14.01,2013-01-17 12:25:00,
2013-01-17 06:30:00,30.4,27.1,30.26,North,5,7.6,10.5,88,0.00,,CLR,0.00,VWS V14.01,2013-01-17 12:30:00,
2013-01-17 06:35:00,30.2,26.9,30.26,North,357,5.4,8.7,88,0.00,,CLR,0.00,VWS V14.01,2013-01-17 12:35:00,
2013-01-17 06:40:00,30.0,26.8,30.26,NW,315,7.6,11.9,88,0.00,,CLR,0.00,VWS V14.01,2013-01-17 12:40:00,
2013-01-17 06:45:00,29.8,26.6,30.29,North,350,10.5,16.3,88,0.00,,CLR,0.00,VWS V14.01,2013-01-17 12:45:00,
2013-01-17 06:50:00,29.7,26.4,30.29,North,349,8.1,10.5,88,0.00,,CLR,0.00,VWS V14.01,2013-01-17 12:50:00,
2013-01-17 06:55:00,29.5,26.2,30.29,North,353,11.0,12.8,88,0.00,,CLR,0.00,VWS V14.01,2013-01-17 12:55:00,
2013-01-17 07:00:00,29.5,26.2,30.29,North,5,10.5,12.8,88,0.00,,CLR,0.00,VWS V14.01,2013-01-17 13:00:00,
2013-01-17 07:05:00,29.3,26.1,30.29,North,353,5.8,11.0,88,0.00,,CLR,0.00,VWS V14.01,2013-01-17 13:05:00,
2013-01-17 07:10:00,29.1,25.9,30.29,North,350,7.6,8.7,88,0.00,,CLR,0.00,VWS V14.01,2013-01-17 13:10:00,
2013-01-17 07:15:00,28.9,25.7,30.29,North,0,4.0,4.0,88,0.00,,CLR,0.00,VWS V14.01,2013-01-17 13:15:00,
2013-01-17 07:20:00,28.8,25.5,30.29,North,2,6.3,11.0,88,0.00,,CLR,0.00,VWS V14.01,2013-01-17 13:20:00,
2013-01-17 07:25:00,28.6,25.4,30.29,North,9,4.9,6.7,88,0.00,,CLR,0.00,VWS V14.01,2013-01-17 13:25:00,
2013-01-17 07:30:00,28.4,26.1,30.29,NNW,330,8.1,8.1,91,0.00,,CLR,0.00,VWS V14.01,2013-01-17 13:30:00,
2013-01-17 07:35:00,28.2,25.9,30.29,North,0,8.7,10.5,91,0.00,,CLR,0.00,VWS V14.01,2013-01-17 13:35:00,
2013-01-17 07:40:00,28.0,25.8,30.29,North,0,8.3,9.2,91,0.00,,CLR,0.00,VWS V14.01,2013-01-17 13:40:00,
2013-01-17 07:45:00,28.0,25.8,30.29,North,0,8.1,8.1,91,0.00,,CLR,0.00,VWS V14.01,2013-01-17 13:45:00,
2013-01-17 07:50:00,27.9,25.6,30.29,NNW,346,9.2,9.2,91,0.00,,CLR,0.00,VWS V14.01,2013-01-17 13:50:00,
2013-01-17 07:55:00,27.9,25.6,30.29,NNW,348,3.6,6.3,91,0.00,,CLR,0.00,VWS V14.01,2013-01-17 13:55:00,
2013-01-17 08:01:00,27.9,25.6,30.32,NNW,338,5.4,8.1,91,0.00,,CLR,0.00,VWS V14.01,2013-01-17 14:01:00,
2013-01-17 08:06:00,27.7,25.4,30.32,NNW,344,7.6,8.7,91,0.00,,CLR,0.00,VWS V14.01,2013-01-17 14:06:00,
2013-01-17 08:11:00,27.7,25.4,30.32,NNW,328,5.4,6.3,91,0.00,,CLR,0.00,VWS V14.01,2013-01-17 14:11:00,
2013-01-17 08:16:00,27.9,25.6,30.32,NNW,344,10.5,10.5,91,0.00,,CLR,0.00,VWS V14.01,2013-01-17 14:16:00,
2013-01-17 08:21:00,27.9,25.6,30.32,NNW,329,12.3,12.8,91,0.00,,CLR,0.00,VWS V14.01,2013-01-17 14:21:00,
2013-01-17 08:26:00,27.7,25.4,30.32,NNE,23,5.4,10.5,91,0.00,,CLR,0.00,VWS V14.01,2013-01-17 14:26:00,
2013-01-17 08:31:00,27.7,25.4,30.32,NNW,333,5.8,10.5,91,0.00,,CLR,0.00,VWS V14.01,2013-01-17 14:31:00,
2013-01-17 08:36:00,27.7,25.4,30.32,North,3,13.2,13.2,91,0.00,,CLR,0.00,VWS V14.01,2013-01-17 14:36:00,
2013-01-17 08:41:00,27.7,25.4,30.32,NNW,348,3.1,13.2,91,0.00,,CLR,0.00,VWS V14.01,2013-01-17 14:41:00,
2013-01-17 08:46:00,27.7,25.4,30.32,North,2,7.6,12.3,91,0.00,,CLR,0.00,VWS V14.01,2013-01-17 14:46:00,
2013-01-17 08:51:00,27.9,25.6,30.32,North,1,8.1,8.1,91,0.00,,CLR,0.00,VWS V14.01,2013-01-17 14:51:00,
2013-01-17 08:57:00,27.9,25.6,30.32,NNE,23,2.7,11.0,91,0.00,,CLR,0.00,VWS V14.01,2013-01-17 14:57:00,
2013-01-17 09:02:00,28.0,25.8,30.32,North,0,3.6,8.1,91,0.00,,CLR,0.00,VWS V14.01,2013-01-17 15:02:00,
2013-01-17 09:07:00,28.4,26.1,30.32,North,350,5.4,8.3,91,0.00,,CLR,0.00,VWS V14.01,2013-01-17 15:07:00,
2013-01-17 09:12:00,28.8,25.5,30.32,NNW,346,5.4,8.1,88,0.00,,CLR,0.00,VWS V14.01,2013-01-17 15:12:00,
2013-01-17 09:17:00,29.3,26.1,30.35,WNW,286,6.3,8.7,88,0.00,,CLR,0.00,VWS V14.01,2013-01-17 15:17:00,
2013-01-17 09:22:00,29.3,26.1,30.35,North,0,7.6,11.0,88,0.00,,CLR,0.00,VWS V14.01,2013-01-17 15:22:00,
2013-01-17 09:27:00,29.3,26.1,30.35,NNW,345,7.6,11.0,88,0.00,,CLR,0.00,VWS V14.01,2013-01-17 15:27:00,
2013-01-17 09:32:00,29.3,26.1,30.35,North,350,6.3,8.3,88,0.00,,CLR,0.00,VWS V14.01,2013-01-17 15:32:00,
2013-01-17 09:37:00,29.7,26.4,30.35,North,353,4.9,8.1,88,0.00,,CLR,0.00,VWS V14.01,2013-01-17 15:37:00,
2013-01-17 09:42:00,30.0,26.8,30.35,NNW,331,4.9,8.1,88,0.00,,CLR,0.00,VWS V14.01,2013-01-17 15:42:00,
2013-01-17 09:47:00,30.0,26.8,30.35,NNW,340,7.2,7.6,88,0.00,,CLR,0.00,VWS V14.01,2013-01-17 15:47:00,
2013-01-17 09:53:00,30.2,26.9,30.35,NNW,341,5.4,10.1,88,0.00,,CLR,0.00,VWS V14.01,2013-01-17 15:53:00,
2013-01-17 09:58:00,30.2,26.9,30.35,NNW,329,5.8,7.6,88,0.00,,CLR,0.00,VWS V14.01,2013-01-17 15:58:00,
2013-01-17 10:03:00,30.4,27.1,30.35,NNW,333,4.0,6.3,88,0.00,,CLR,0.00,VWS V14.01,2013-01-17 16:03:00,
2013-01-17 10:08:00,30.6,27.3,30.35,NNE,19,5.8,6.3,88,0.00,,CLR,0.00,VWS V14.01,2013-01-17 16:08:00,
2013-01-17 10:13:00,30.9,27.6,30.35,NNW,336,5.4,5.8,88,0.00,,CLR,0.00,VWS V14.01,2013-01-17 16:13:00,
2013-01-17 10:18:00,31.1,27.8,30.35,North,2,8.7,8.7,88,0.00,,CLR,0.00,VWS V14.01,2013-01-17 16:18:00,
2013-01-17 10:23:00,31.6,28.4,30.35,NNW,335,10.5,10.5,88,0.00,,CLR,0.00,VWS V14.01,2013-01-17 16:23:00,
2013-01-17 10:28:00,31.6,28.4,30.35,North,357,5.8,11.0,88,0.00,,CLR,0.00,VWS V14.01,2013-01-17 16:28:00,
2013-01-17 10:33:00,31.5,28.2,30.35,NNW,327,4.0,10.1,88,0.00,,CLR,0.00,VWS V14.01,2013-01-17 16:33:00,
2013-01-17 10:38:00,31.1,27.8,30.35,NNW,346,6.7,14.1,88,0.00,,CLR,0.00,VWS V14.01,2013-01-17 16:38:00,
2013-01-17 10:43:00,30.7,27.5,30.35,NNW,331,5.8,10.1,88,0.00,,CLR,0.00,VWS V14.01,2013-01-17 16:43:00,
2013-01-17 10:48:00,31.1,27.8,30.35,NNW,343,4.0,11.0,88,0.00,,CLR,0.00,VWS V14.01,2013-01-17 16:48:00,
2013-01-17 10:53:00,31.6,28.4,30.35,North,357,10.1,12.3,88,0.00,,CLR,0.00,VWS V14.01,2013-01-17 16:53:00,
2013-01-17 10:58:00,31.6,28.4,30.35,NNW,344,8.1,11.9,88,0.00,,CLR,0.00,VWS V14.01,2013-01-17 16:58:00,
2013-01-17 11:03:00,32.0,28.7,30.35,NW,324,4.0,11.0,88,0.00,,CLR,0.00,VWS V14.01,2013-01-17 17:03:00,
2013-01-17 11:09:00,32.5,29.2,30.35,North,350,11.0,11.0,88,0.00,,CLR,0.00,VWS V14.01,2013-01-17 17:09:00,
2013-01-17 11:14:00,32.5,29.2,30.35,North,0,11.0,15.4,88,0.00,,CLR,0.00,VWS V14.01,2013-01-17 17:14:00,
2013-01-17 11:19:00,32.5,29.2,30.35,NNW,335,8.7,10.5,88,0.00,,CLR,0.00,VWS V14.01,2013-01-17 17:19:00,
2013-01-17 11:24:00,32.5,29.2,30.35,NNW,331,8.1,12.3,88,0.00,,CLR,0.00,VWS V14.01,2013-01-17 17:24:00,
2013-01-17 11:29:00,32.7,29.4,30.35,NNW,343,13.2,13.2,88,0.00,,CLR,0.00,VWS V14.01,2013-01-17 17:29:00,
2013-01-17 11:34:00,32.9,29.6,30.35,WNW,302,9.6,11.0,88,0.00,,CLR,0.00,VWS V14.01,2013-01-17 17:34:00,
2013-01-17 11:39:00,32.5,29.2,30.35,NW,326,10.5,13.2,88,0.00,,CLR,0.00,VWS V14.01,2013-01-17 17:39:00,
2013-01-17 11:44:00,32.0,28.7,30.35,NNW,328,5.8,15.0,88,0.00,,CLR,0.00,VWS V14.01,2013-01-17 17:44:00,
2013-01-17 11:49:00,32.2,28.9,30.35,NNW,346,7.6,13.2,88,0.00,,CLR,0.00,VWS V14.01,2013-01-17 17:49:00,
2013-01-17 11:54:00,32.5,29.2,30.35,NNW,341,5.4,12.8,88,0.00,,CLR,0.00,VWS V14.01,2013-01-17 17:54:00,
2013-01-17 11:59:00,32.5,29.2,30.35,North,2,6.7,13.2,88,0.00,,CLR,0.00,VWS V14.01,2013-01-17 17:59:00,
2013-01-17 12:04:00,32.7,29.4,30.35,NW,310,6.3,12.8,88,0.00,,CLR,0.00,VWS V14.01,2013-01-17 18:04:00,
2013-01-17 12:09:00,32.7,29.4,30.35,NW,321,8.7,12.3,88,0.00,,CLR,0.00,VWS V14.01,2013-01-17 18:09:00,
2013-01-17 12:14:00,32.7,29.4,30.35,North,353,6.3,11.0,88,0.00,,CLR,0.00,VWS V14.01,2013-01-17 18:14:00,
2013-01-17 12:19:00,32.9,29.6,30.35,North,0,6.3,13.2,88,0.00,,CLR,0.00,VWS V14.01,2013-01-17 18:19:00,
2013-01-17 12:24:00,33.1,29.8,30.35,North,350,10.5,13.2,88,0.00,,CLR,0.00,VWS V14.01,2013-01-17 18:24:00,
2013-01-17 12:29:00,33.3,30.0,30.35,NNW,338,13.2,13.2,88,0.00,,CLR,0.00,VWS V14.01,2013-01-17 18:29:00,
2013-01-17 12:34:00,33.6,30.3,30.35,North,0,10.1,13.2,88,0.00,,CLR,0.00,VWS V14.01,2013-01-17 18:34:00,
2013-01-17 12:39:00,33.8,30.5,30.35,North,353,8.3,10.1,88,0.00,,CLR,0.00,VWS V14.01,2013-01-17 18:39:00,
2013-01-17 12:45:00,34.0,30.7,30.35,NNW,331,8.3,14.5,88,0.00,,CLR,0.00,VWS V14.01,2013-01-17 18:45:00,
2013-01-17 12:50:00,33.6,30.3,30.35,North,357,15.0,15.4,88,0.00,,CLR,0.00,VWS V14.01,2013-01-17 18:50:00,
2013-01-17 12:55:00,33.8,30.5,30.35,West,274,6.3,15.0,88,0.00,,CLR,0.00,VWS V14.01,2013-01-17 18:55:00,
2013-01-17 13:00:00,33.6,30.3,30.35,West,281,7.6,13.2,88,0.00,,CLR,0.00,VWS V14.01,2013-01-17 19:00:00,
2013-01-17 13:05:00,33.6,30.3,30.35,NNW,333,15.4,15.4,88,0.00,,CLR,0.00,VWS V14.01,2013-01-17 19:05:00,
2013-01-17 13:10:00,33.6,30.3,30.35,NW,307,6.3,15.4,88,0.00,,CLR,0.00,VWS V14.01,2013-01-17 19:10:00,
2013-01-17 13:15:00,33.6,30.3,30.35,NW,305,5.4,5.4,88,0.00,,CLR,0.00,VWS V14.01,2013-01-17 19:15:00,
2013-01-17 13:20:00,33.6,30.3,30.35,NNW,339,8.3,8.3,88,0.00,,CLR,0.00,VWS V14.01,2013-01-17 19:20:00,
2013-01-17 13:25:00,33.4,30.1,30.35,NNW,338,5.4,6.3,88,0.00,,CLR,0.00,VWS V14.01,2013-01-17 19:25:00,
2013-01-17 13:30:00,33.4,30.1,30.35,NNW,334,10.1,12.8,88,0.00,,CLR,0.00,VWS V14.01,2013-01-17 19:30:00,
2013-01-17 13:35:00,33.6,30.3,30.35,NW,307,13.6,13.6,88,0.00,,CLR,0.00,VWS V14.01,2013-01-17 19:35:00,
2013-01-17 13:40:00,33.8,30.5,30.35,North,350,7.6,11.0,88,0.00,,CLR,0.00,VWS V14.01,2013-01-17 19:40:00,
2013-01-17 13:45:00,34.3,31.0,30.35,NNW,340,5.8,5.8,88,0.00,,CLR,0.00,VWS V14.01,2013-01-17 19:45:00,
2013-01-17 13:50:00,34.5,31.2,30.35,NNW,338,5.4,6.3,88,0.00,,CLR,0.00,VWS V14.01,2013-01-17 19:50:00,
2013-01-17 13:55:00,34.5,31.2,30.35,North,357,12.8,12.8,88,0.00,,CLR,0.00,VWS V14.01,2013-01-17 19:55:00,
2013-01-17 14:00:00,34.2,30.8,30.35,NNW,332,10.5,13.6,88,0.00,,CLR,0.00,VWS V14.01,2013-01-17 20:00:00,
2013-01-17 14:05:00,34.0,30.7,30.35,NNW,344,5.8,5.8,88,0.00,,CLR,0.00,VWS V14.01,2013-01-17 20:05:00,
2013-01-17 14:10:00,34.0,30.7,30.35,NNW,338,12.3,12.3,88,0.00,,CLR,0.00,VWS V14.01,2013-01-17 20:10:00,
2013-01-17 14:16:00,33.8,30.5,30.35,NNW,329,7.6,11.4,88,0.00,,CLR,0.00,VWS V14.01,2013-01-17 20:16:00,
2013-01-17 14:21:00,33.8,30.5,30.35,NNW,346,8.3,11.9,88,0.00,,CLR,0.00,VWS V14.01,2013-01-17 20:21:00,
2013-01-17 14:26:00,34.0,30.7,30.35,NNW,337,7.6,8.7,88,0.00,,CLR,0.00,VWS V14.01,2013-01-17 20:26:00,
2013-01-17 14:31:00,34.2,30.8,30.35,NNW,345,10.5,10.5,88,0.00,,CLR,0.00,VWS V14.01,2013-01-17 20:31:00,
2013-01-17 14:36:00,34.2,30.8,30.35,North,357,5.8,8.1,88,0.00,,CLR,0.00,VWS V14.01,2013-01-17 20:36:00,
2013-01-17 14:41:00,34.3,31.0,30.35,NW,322,8.7,13.6,88,0.00,,CLR,0.00,VWS V14.01,2013-01-17 20:41:00,
2013-01-17 14:46:00,34.3,31.0,30.38,NNW,331,12.8,12.8,88,0.00,,CLR,0.00,VWS V14.01,2013-01-17 20:46:00,
2013-01-17 14:51:00,34.3,31.0,30.38,NNE,32,8.1,12.3,88,0.00,,CLR,0.00,VWS V14.01,2013-01-17 20:51:00,
2013-01-17 14:56:00,34.3,31.0,30.38,NNE,20,14.5,14.5,88,0.00,,CLR,0.00,VWS V14.01,2013-01-17 20:56:00,
2013-01-17 15:01:00,34.0,30.7,30.35,North,0,6.3,8.7,88,0.00,,CLR,0.00,VWS V14.01,2013-01-17 21:01:00,
2013-01-17 15:06:00,34.0,30.7,30.35,North,357,8.7,12.3,88,0.00,,CLR,0.00,VWS V14.01,2013-01-17 21:06:00,
2013-01-17 15:11:00,33.8,30.5,30.35,NNE,15,10.5,10.5,88,0.00,,CLR,0.00,VWS V14.01,2013-01-17 21:11:00,
2013-01-17 15:17:00,33.8,30.5,30.38,NNE,15,8.7,13.2,88,0.00,,CLR,0.00,VWS V14.01,2013-01-17 21:17:00,
2013-01-17 15:22:00,33.4,30.1,30.38,WNW,301,8.1,11.0,88,0.00,,CLR,0.00,VWS V14.01,2013-01-17 21:22:00,
2013-01-17 15:27:00,33.4,30.1,30.38,NW,315,0.0,10.5,88,0.00,,CLR,0.00,VWS V14.01,2013-01-17 21:27:00,
2013-01-17 15:32:00,33.3,30.0,30.38,NNW,340,12.8,12.8,88,0.00,,CLR,0.00,VWS V14.01,2013-01-17 21:32:00,
2013-01-17 15:37:00,32.7,29.4,30.38,North,357,8.3,12.8,88,0.00,,CLR,0.00,VWS V14.01,2013-01-17 21:37:00,
2013-01-17 15:42:00,32.2,28.9,30.38,North,0,10.5,11.0,88,0.00,,CLR,0.00,VWS V14.01,2013-01-17 21:42:00,
2013-01-17 15:47:00,32.0,28.7,30.38,North,5,11.0,12.3,88,0.00,,CLR,0.00,VWS V14.01,2013-01-17 21:47:00,
2013-01-17 15:52:00,31.6,28.4,30.38,North,357,6.3,11.0,88,0.00,,CLR,0.00,VWS V14.01,2013-01-17 21:52:00,
2013-01-17 15:57:00,31.5,28.2,30.38,North,0,6.3,8.3,88,0.00,,CLR,0.00,VWS V14.01,2013-01-17 21:57:00,
2013-01-17 16:02:00,31.3,28.0,30.38,NW,307,5.4,10.5,88,0.00,,CLR,0.00,VWS V14.01,2013-01-17 22:02:00,
2013-01-17 16:07:00,31.3,28.0,30.38,WNW,285,4.0,10.5,88,0.00,,CLR,0.00,VWS V14.01,2013-01-17 22:07:00,
2013-01-17 16:12:00,31.1,27.8,30.38,NNW,332,7.6,8.7,88,0.00,,CLR,0.00,VWS V14.01,2013-01-17 22:12:00,
2013-01-17 16:17:00,31.1,27.8,30.38,North,0,3.1,6.7,88,0.00,,CLR,0.00,VWS V14.01,2013-01-17 22:17:00,
2013-01-17 16:22:00,30.9,27.6,30.38,NNW,344,5.8,7.6,88,0.00,,CLR,0.00,VWS V14.01,2013-01-17 22:22:00,
2013-01-17 16:27:00,30.7,27.5,30.38,North,0,12.8,12.8,88,0.00,,CLR,0.00,VWS V14.01,2013-01-17 22:27:00,
2013-01-17 16:32:00,30.7,27.5,30.38,North,357,8.1,8.7,88,0.00,,CLR,0.00,VWS V14.01,2013-01-17 22:32:00,
2013-01-17 16:37:00,30.6,27.3,30.38,NNW,341,3.6,5.8,88,0.00,,CLR,0.00,VWS V14.01,2013-01-17 22:37:00,
2013-01-17 16:42:00,30.4,27.1,30.38,NNW,346,0.0,4.0,88,0.00,,CLR,0.00,VWS V14.01,2013-01-17 22:42:00,
2013-01-17 16:48:00,30.2,26.9,30.38,NNW,343,4.5,4.5,88,0.00,,CLR,0.00,VWS V14.01,2013-01-17 22:48:00,
2013-01-17 16:53:00,30.2,26.9,30.38,NNW,337,2.7,4.0,88,0.00,,CLR,0.00,VWS V14.01,2013-01-17 22:53:00,
2013-01-17 16:58:00,30.0,26.8,30.38,NNE,14,0.0,6.3,88,0.00,,CLR,0.00,VWS V14.01,2013-01-17 22:58:00,
2013-01-17 17:03:00,29.8,26.6,30.41,NNW,340,0.0,5.8,88,0.00,,CLR,0.00,VWS V14.01,2013-01-17 23:03:00,
2013-01-17 17:08:00,29.7,26.4,30.41,NNW,341,0.0,0.0,88,0.00,,CLR,0.00,VWS V14.01,2013-01-17 23:08:00,
2013-01-17 17:13:00,29.3,26.1,30.41,NNW,337,0.0,0.0,88,0.00,,CLR,0.00,VWS V14.01,2013-01-17 23:13:00,
2013-01-17 17:18:00,28.9,25.7,30.41,West,271,0.0,0.0,88,0.00,,CLR,0.00,VWS V14.01,2013-01-17 23:18:00,
2013-01-17 17:23:00,28.8,25.5,30.41,West,271,0.0,0.0,88,0.00,,CLR,0.00,VWS V14.01,2013-01-17 23:23:00,
2013-01-17 17:28:00,28.4,26.1,30.41,West,271,0.0,0.0,91,0.00,,CLR,0.00,VWS V14.01,2013-01-17 23:28:00,
2013-01-17 17:33:00,28.2,25.9,30.41,West,271,0.0,0.0,91,0.00,,CLR,0.00,VWS V14.01,2013-01-17 23:33:00,
2013-01-17 17:38:00,27.9,25.6,30.41,West,271,0.0,0.0,91,0.00,,CLR,0.00,VWS V14.01,2013-01-17 23:38:00,
2013-01-17 17:43:00,27.7,25.4,30.41,West,271,0.0,0.0,91,0.00,,CLR,0.00,VWS V14.01,2013-01-17 23:43:00,
2013-01-17 17:49:00,27.5,25.2,30.41,West,271,0.0,0.0,91,0.00,,CLR,0.00,VWS V14.01,2013-01-17 23:49:00,
2013-01-17 17:54:00,27.3,25.0,30.41,West,271,0.0,0.0,91,0.00,,CLR,0.00,VWS V14.01,2013-01-17 23:54:00,
2013-01-17 17:59:00,27.1,24.9,30.41,West,271,0.0,0.0,91,0.00,,CLR,0.00,VWS V14.01,2013-01-17 23:59:00,
2013-01-17 18:04:00,27.0,24.7,30.41,West,271,0.0,0.0,91,0.00,,CLR,0.00,VWS V14.01,2013-01-18 00:04:00,
2013-01-17 18:09:00,27.0,21.8,30.41,West,271,0.0,0.0,80,0.00,,CLR,0.00,VWS V14.01,2013-01-18 00:09:00,
2013-01-17 18:14:00,26.8,21.6,30.41,West,271,0.0,0.0,80,0.00,,CLR,0.00,VWS V14.01,2013-01-18 00:14:00,
2013-01-17 18:20:00,26.4,22.2,30.41,West,271,0.0,0.0,84,0.00,,CLR,0.00,VWS V14.01,2013-01-18 00:20:00,
2013-01-17 18:25:00,26.2,22.1,30.41,West,271,0.0,0.0,84,0.00,,CLR,0.00,VWS V14.01,2013-01-18 00:25:00,
2013-01-17 18:30:00,26.1,21.9,30.41,West,271,0.0,0.0,84,0.00,,CLR,0.00,VWS V14.01,2013-01-18 00:30:00,
2013-01-17 18:35:00,26.1,21.9,30.41,West,271,0.0,0.0,84,0.00,,CLR,0.00,VWS V14.01,2013-01-18 00:35:00,
2013-01-17 18:40:00,26.1,21.9,30.41,West,271,0.0,0.0,84,0.00,,CLR,0.00,VWS V14.01,2013-01-18 00:40:00,
2013-01-17 18:45:00,26.1,21.9,30.41,West,271,0.0,0.0,84,0.00,,CLR,0.00,VWS V14.01,2013-01-18 00:45:00,
2013-01-17 18:50:00,26.1,21.9,30.41,West,271,0.0,0.0,84,0.00,,CLR,0.00,VWS V14.01,2013-01-18 00:50:00,
2013-01-17 18:55:00,26.1,21.9,30.41,West,271,0.0,0.0,84,0.00,,CLR,0.00,VWS V14.01,2013-01-18 00:55:00,
2013-01-17 19:00:00,25.9,21.7,30.44,West,271,0.0,0.0,84,0.00,,CLR,0.00,VWS V14.01,2013-01-18 01:00:00,
2013-01-17 19:05:00,25.9,21.7,30.44,West,271,0.0,0.0,84,0.00,,CLR,0.00,VWS V14.01,2013-01-18 01:05:00,
2013-01-17 19:10:00,25.7,21.5,30.44,West,271,0.0,0.0,84,0.00,,CLR,0.00,VWS V14.01,2013-01-18 01:10:00,
2013-01-17 19:15:00,25.5,21.4,30.44,West,271,0.0,0.0,84,0.00,,CLR,0.00,VWS V14.01,2013-01-18 01:15:00,
2013-01-17 19:20:00,25.3,21.2,30.44,West,271,0.0,0.0,84,0.00,,CLR,0.00,VWS V14.01,2013-01-18 01:20:00,
2013-01-17 19:25:00,25.5,21.4,30.44,West,271,0.0,0.0,84,0.00,,CLR,0.00,VWS V14.01,2013-01-18 01:25:00,
2013-01-17 19:30:00,25.5,21.4,30.44,West,271,0.0,0.0,84,0.00,,CLR,0.00,VWS V14.01,2013-01-18 01:30:00,
2013-01-17 19:35:00,25.5,21.4,30.44,West,271,0.0,0.0,84,0.00,,CLR,0.00,VWS V14.01,2013-01-18 01:35:00,
2013-01-17 19:41:00,25.3,21.2,30.44,West,271,0.0,0.0,84,0.00,,CLR,0.00,VWS V14.01,2013-01-18 01:41:00,
2013-01-17 19:46:00,25.2,21.0,30.44,West,271,0.0,0.0,84,0.00,,CLR,0.00,VWS V14.01,2013-01-18 01:46:00,
2013-01-17 19:51:00,25.2,21.0,30.44,West,271,0.0,0.0,84,0.00,,CLR,0.00,VWS V14.01,2013-01-18 01:51:00,
2013-01-17 19:56:00,25.2,21.0,30.44,West,271,0.0,0.0,84,0.00,,CLR,0.00,VWS V14.01,2013-01-18 01:56:00,
2013-01-17 20:01:00,25.2,21.0,30.44,West,271,0.0,0.0,84,0.00,,CLR,0.00,VWS V14.01,2013-01-18 02:01:00,
2013-01-17 20:13:00,25.2,21.0,30.44,West,271,0.0,0.0,84,0.00,,CLR,0.00,VWS V14.01,2013-01-18 02:13:00,
2013-01-17 20:19:00,25.0,20.8,30.44,West,271,0.0,0.0,84,0.00,,CLR,0.00,VWS V14.01,2013-01-18 02:19:00,
2013-01-17 20:24:00,24.8,20.7,30.44,West,271,0.0,0.0,84,0.00,,CLR,0.00,VWS V14.01,2013-01-18 02:24:00,
2013-01-17 20:29:00,24.6,20.5,30.44,West,271,0.0,0.0,84,0.00,,CLR,0.00,VWS V14.01,2013-01-18 02:29:00,
2013-01-17 20:34:00,24.4,20.3,30.44,West,271,0.0,0.0,84,0.00,,CLR,0.00,VWS V14.01,2013-01-18 02:34:00,
2013-01-17 20:39:00,24.4,20.3,30.44,West,271,0.0,0.0,84,0.00,,CLR,0.00,VWS V14.01,2013-01-18 02:39:00,
2013-01-17 20:44:00,24.3,20.1,30.44,West,271,0.0,0.0,84,0.00,,CLR,0.00,VWS V14.01,2013-01-18 02:44:00,
2013-01-17 20:49:00,24.3,20.1,30.44,West,271,0.0,0.0,84,0.00,,CLR,0.00,VWS V14.01,2013-01-18 02:49:00,
2013-01-17 20:54:00,24.3,20.1,30.44,West,271,0.0,0.0,84,0.00,,CLR,0.00,VWS V14.01,2013-01-18 02:54:00,
2013-01-17 20:59:00,24.3,20.1,30.44,West,271,0.0,0.0,84,0.00,,CLR,0.00,VWS V14.01,2013-01-18 02:59:00,
2013-01-17 21:04:00,24.3,20.1,30.44,West,271,0.0,0.0,84,0.00,,CLR,0.00,VWS V14.01,2013-01-18 03:04:00,
2013-01-17 21:09:00,24.3,20.1,30.44,West,271,0.0,0.0,84,0.00,,CLR,0.00,VWS V14.01,2013-01-18 03:09:00,
2013-01-17 21:15:00,24.4,20.3,30.44,West,271,0.0,0.0,84,0.00,,CLR,0.00,VWS V14.01,2013-01-18 03:15:00,
2013-01-17 21:20:00,24.4,20.3,30.44,West,271,0.0,0.0,84,0.00,,CLR,0.00,VWS V14.01,2013-01-18 03:20:00,
2013-01-17 21:25:00,24.3,20.1,30.44,West,271,0.0,0.0,84,0.00,,CLR,0.00,VWS V14.01,2013-01-18 03:25:00,
2013-01-17 21:30:00,24.3,20.1,30.44,West,271,0.0,0.0,84,0.00,,CLR,0.00,VWS V14.01,2013-01-18 03:30:00,
2013-01-17 21:35:00,24.3,20.1,30.44,West,271,0.0,0.0,84,0.00,,CLR,0.00,VWS V14.01,2013-01-18 03:35:00,
2013-01-17 21:40:00,24.1,20.0,30.44,West,271,0.0,0.0,84,0.00,,CLR,0.00,VWS V14.01,2013-01-18 03:40:00,
2013-01-17 21:45:00,23.9,19.8,30.44,West,271,0.0,0.0,84,0.00,,CLR,0.00,VWS V14.01,2013-01-18 03:45:00,
2013-01-17 21:50:00,23.7,19.6,30.44,West,271,0.0,0.0,84,0.00,,CLR,0.00,VWS V14.01,2013-01-18 03:50:00,
2013-01-17 21:55:00,23.7,19.6,30.44,West,271,0.0,0.0,84,0.00,,CLR,0.00,VWS V14.01,2013-01-18 03:55:00,
2013-01-17 22:00:00,23.7,19.6,30.44,West,271,0.0,0.0,84,0.00,,CLR,0.00,VWS V14.01,2013-01-18 04:00:00,
2013-01-17 22:05:00,23.7,19.6,30.44,West,271,0.0,0.0,84,0.00,,CLR,0.00,VWS V14.01,2013-01-18 04:05:00,
2013-01-17 22:10:00,23.5,19.4,30.44,West,271,0.0,0.0,84,0.00,,CLR,0.00,VWS V14.01,2013-01-18 04:10:00,
2013-01-17 22:15:00,23.4,19.2,30.44,West,271,0.0,0.0,84,0.00,,CLR,0.00,VWS V14.01,2013-01-18 04:15:00,
2013-01-17 22:20:00,23.2,19.1,30.44,West,271,0.0,0.0,84,0.00,,CLR,0.00,VWS V14.01,2013-01-18 04:20:00,
2013-01-17 22:25:00,22.8,19.7,30.44,West,271,0.0,0.0,88,0.00,,CLR,0.00,VWS V14.01,2013-01-18 04:25:00,
2013-01-17 22:30:00,22.8,19.7,30.44,West,271,0.0,0.0,88,0.00,,CLR,0.00,VWS V14.01,2013-01-18 04:30:00,
2013-01-17 22:36:00,22.6,19.5,30.44,West,271,0.0,0.0,88,0.00,,CLR,0.00,VWS V14.01,2013-01-18 04:36:00,
2013-01-17 22:41:00,22.6,19.5,30.44,West,271,0.0,0.0,88,0.00,,CLR,0.00,VWS V14.01,2013-01-18 04:41:00,
2013-01-17 22:46:00,22.5,19.3,30.44,West,271,0.0,0.0,88,0.00,,CLR,0.00,VWS V14.01,2013-01-18 04:46:00,
2013-01-17 22:51:00,22.3,19.1,30.44,West,271,0.0,0.0,88,0.00,,CLR,0.00,VWS V14.01,2013-01-18 04:51:00,
2013-01-17 22:56:00,22.3,19.1,30.44,West,271,0.0,0.0,88,0.00,,CLR,0.00,VWS V14.01,2013-01-18 04:56:00,
2013-01-17 23:00:00,22.3,19.1,30.44,West,271,0.0,0.0,88,0.00,,CLR,0.00,VWS V14.01,2013-01-18 05:00:00,
2013-01-17 23:01:00,22.1,19.0,30.44,West,271,0.0,0.0,88,0.00,,CLR,0.00,VWS V14.01,2013-01-18 05:01:00,
2013-01-17 23:03:00,22.1,19.0,30.44,West,271,0.0,0.0,88,0.00,,CLR,0.00,VWS V14.01,2013-01-18 05:03:00,
2013-01-17 23:08:00,21.9,18.8,30.44,West,271,0.0,0.0,88,0.00,,CLR,0.00,VWS V14.01,2013-01-18 05:08:00,
2013-01-17 23:13:00,21.9,18.8,30.44,West,271,0.0,0.0,88,0.00,,CLR,0.00,VWS V14.01,2013-01-18 05:13:00,
2013-01-17 23:18:00,21.9,18.8,30.44,West,271,0.0,0.0,88,0.00,,CLR,0.00,VWS V14.01,2013-01-18 05:18:00,
2013-01-17 23:23:00,21.9,18.8,30.44,West,271,0.0,0.0,88,0.00,,CLR,0.00,VWS V14.01,2013-01-18 05:23:00,
2013-01-17 23:28:00,21.9,18.8,30.44,West,271,0.0,0.0,88,0.00,,CLR,0.00,VWS V14.01,2013-01-18 05:28:00,
2013-01-17 23:33:00,22.1,19.0,30.44,West,269,0.0,0.0,88,0.00,,CLR,0.00,VWS V14.01,2013-01-18 05:33:00,
2013-01-17 23:39:00,22.1,19.0,30.44,WSW,244,0.0,0.0,88,0.00,,CLR,0.00,VWS V14.01,2013-01-18 05:39:00,
2013-01-17 23:44:00,22.1,19.0,30.44,WSW,240,0.0,0.0,88,0.00,,CLR,0.00,VWS V14.01,2013-01-18 05:44:00,
2013-01-17 23:49:00,21.9,18.8,30.44,WSW,240,0.0,0.0,88,0.00,,CLR,0.00,VWS V14.01,2013-01-18 05:49:00,
2013-01-17 23:54:00,21.9,18.8,30.44,WSW,240,0.0,0.0,88,0.00,,CLR,0.00,VWS V14.01,2013-01-18 05:54:00,
2013-01-17 23:59:00,21.9,18.8,30.41,WSW,240,0.0,0.0,88,0.00,,CLR,0.00,VWS V14.01,2013-01-18 05:59:00,